Location: ActonStarParty
(42.4766°N, 71.4538°W)
Time: 00:36:24
(UTC-04:00)

Amateur Radio Satellites - All Passes

Search period start: 19 April 2015 00:06
Search period end: 20 April 2015 00:06
Location: ActonStarParty, 42.4766°N, 71.4538°W

Satellite Date Start Highest point End Downlink Frequencies (MHz)
Time Altitude Azimuth
BUGSAT 1 19 Apr 00:07:25 00:11:31 76° 102° (ESE) 00:15:40 437.445
Cosmos 2491 19 Apr 00:11:17 00:19:59 75° 280° (W) 00:28:48 435.465 / 435.565
QB50P2 19 Apr 00:13:05 00:17:21 64° 286° (WNW) 00:21:35 145.880/145.840
Cosmos 2504 19 Apr 00:15:46 00:22:27 27° 64° (ENE) 00:28:58 435.465 / 435.565
TISAT 1 19 Apr 00:16:56 00:21:07 84° 77° (ENE) 00:25:20 437.305
SPROUT 19 Apr 00:17:44 00:22:00 78° 258° (WSW) 00:26:18 437.525
YUBILEINY 19 Apr 00:25:56 00:33:27 32° 275° (W) 00:40:41 435.215
BEESAT 19 Apr 00:30:02 00:33:32 21° 65° (ENE) 00:37:10 436.000
SWISSCUBE 19 Apr 00:30:59 00:34:41 23° 66° (ENE) 00:38:29 437.505
POPSAT HIP 1 19 Apr 00:36:37 00:40:34 36° 289° (WNW) 00:44:30 437.405
NANOSAT C BR1 19 Apr 00:37:01 00:40:58 36° 289° (WNW) 00:44:52 145.865
TIGRISAT 19 Apr 00:38:30 00:42:10 22° 294° (WNW) 00:45:43 435.000
UNISAT 6 19 Apr 00:39:15 00:42:51 21° 294° (WNW) 00:46:20 437.425
PHONESAT 2.4 19 Apr 00:39:21 00:42:49 47° 193° (SSW) 00:46:14 2401.200-2431.200
O/OREOS (USA 219) 19 Apr 01:01:49 01:05:46 27° 303° (WNW) 01:09:40 437.305
POLYITAN 1 19 Apr 01:03:19 01:06:32 20° 293° (WNW) 01:09:38 437.675
Oscar 19 19 Apr 01:11:04 01:14:25 18° 90° (E) 01:17:57 437.125/150
DUCHIFAT 1 19 Apr 01:14:27 01:17:10 16° 295° (WNW) 01:19:46 145.980
QB50P1 19 Apr 01:27:42 01:29:29 12° 297° (WNW) 01:31:05 145.935-145.965
VERMONT LUNAR 19 Apr 01:28:12 01:30:02 14° 210° (SSW) 01:31:47 437.305
ITUPSAT 1 19 Apr 01:30:22 01:35:10 78° 74° (ENE) 01:39:59 437.325
RS-15 19 Apr 01:32:43 01:44:06 65° 244° (WSW) 01:55:53 29.354- 29.394
AIST 1 19 Apr 01:33:11 01:37:27 60° 95° (E) 01:41:43
BUGSAT 1 19 Apr 01:45:41 01:46:30 10° 297° (WNW) 01:47:05 437.445
BEESAT 19 Apr 02:06:31 02:11:07 45° 261° (W) 02:15:44 436.000
STARS 19 Apr 02:06:38 02:10:02 23° 67° (ENE) 02:13:30 437.465
SWISSCUBE 19 Apr 02:07:49 02:12:21 40° 262° (W) 02:16:51 437.505
Cosmos 2504 19 Apr 02:08:28 02:16:42 65° 267° (W) 02:24:15 435.465 / 435.565
Cosmos 2491 19 Apr 02:13:34 02:18:47 16° 304° (NW) 02:23:32 435.465 / 435.565
PHONESAT 2.4 19 Apr 02:18:15 02:20:38 17° 209° (SSW) 02:22:57 2401.200-2431.200
KKS-1 19 Apr 02:28:44 02:33:05 60° 74° (ENE) 02:37:29 437.445
Oscar 19 19 Apr 02:49:06 02:54:14 59° 288° (WNW) 02:59:20 437.125/150
GONETS M04 19 Apr 02:50:39 02:56:36 20° 59° (ENE) 03:02:54
Gurwin Techsat 1B 19 Apr 02:51:50 02:56:50 41° 97° (E) 03:01:51 435.225
ITAMSAT 1 19 Apr 03:06:40 03:11:49 65° 101° (E) 03:16:58 435.822/435.867
ITUPSAT 1 19 Apr 03:12:04 03:13:45 11° 273° (W) 03:15:07 437.325
AIST 1 19 Apr 03:13:39 03:15:37 12° 294° (WNW) 03:17:22
JAS-2 19 Apr 03:19:06 03:21:27 12° 80° (E) 03:24:09 435.910
MOZHAYETS 4 19 Apr 03:38:04 03:41:36 22° 67° (ENE) 03:45:14
STARS 19 Apr 03:42:18 03:46:19 35° 263° (W) 03:50:21 437.465
RS-15 19 Apr 03:49:11 03:54:43 14° 262° (W) 03:59:11 29.354- 29.394
Cosmos 2504 19 Apr 04:06:32 04:08:27 11° 286° (WNW) 04:09:42 435.465 / 435.565
DANDE 19 Apr 04:07:11 04:12:23 25° 69° (ENE) 04:18:42 436.750
KKS-1 19 Apr 04:08:00 04:10:13 13° 271° (W) 04:12:12 437.445
BEESAT 2 19 Apr 04:11:44 04:15:06 25° 114° (ESE) 04:18:34 435.950
CUSAT 1 19 Apr 04:16:50 04:23:00 37° 72° (ENE) 04:30:20 437.405
BEESAT 3 19 Apr 04:19:41 04:23:25 36° 117° (ESE) 04:27:14 437.485
AIST 2 19 Apr 04:27:37 04:29:18 12° 110° (ESE) 04:31:12 435.215
AO-7 19 Apr 04:32:00 04:40:00 50° 100° (E) 04:48:04 29.400- 29.500
Gurwin Techsat 1B 19 Apr 04:32:12 04:36:39 27° 294° (WNW) 04:41:00 435.225
HORYU 2 19 Apr 04:38:34 04:43:06 82° 285° (WNW) 04:47:36 437.375
M-CUBED/EXP-1 PRIME 19 Apr 04:42:28 04:46:15 25° 61° (ENE) 04:50:12 437.505
GONETS M04 19 Apr 04:46:02 04:54:57 89° 77° (ENE) 05:03:49
ITAMSAT 1 19 Apr 04:47:27 04:50:53 18° 298° (WNW) 04:54:07 435.822/435.867
CUBESAT XI-V 19 Apr 04:55:30 04:57:04 12° 62° (ENE) 04:58:53 437.345
Cosmos 2499 19 Apr 05:00:19 05:05:50 20° 60° (ENE) 05:11:24 435.465 / 435.565
JAS-2 19 Apr 05:01:07 05:08:01 83° 103° (ESE) 05:14:02 435.910
MOZHAYETS 4 19 Apr 05:14:14 05:18:37 40° 263° (W) 05:23:00
STRAND 1 19 Apr 05:15:36 05:17:13 12° 59° (ENE) 05:19:05 437.568
PRISM 19 Apr 05:27:51 05:30:17 16° 65° (ENE) 05:32:52 437.425
AUBIESAT-1 19 Apr 05:30:53 05:35:31 62° 69° (ENE) 05:40:18 437.475
BEESAT 2 19 Apr 05:49:20 05:53:07 33° 312° (NW) 05:56:55 435.950
DANDE 19 Apr 05:49:26 05:56:00 69° 263° (W) 06:04:05 436.750
BEESAT 3 19 Apr 05:58:06 06:01:33 25° 315° (NW) 06:04:58 437.485
CUSAT 1 19 Apr 05:59:18 06:05:53 49° 265° (W) 06:13:34 437.405
AIST 2 19 Apr 06:03:09 06:07:24 69° 305° (NW) 06:11:42 435.215
M-CUBED/EXP-1 PRIME 19 Apr 06:16:24 06:20:51 42° 258° (WSW) 06:25:28 437.505
AO-7 19 Apr 06:25:06 06:32:41 40° 299° (WNW) 06:40:10 29.400- 29.500
CUBESAT XI-V 19 Apr 06:29:16 06:33:56 81° 258° (WSW) 06:38:37 437.345
CUTE-I 19 Apr 06:40:16 06:45:16 41° 98° (E) 06:50:16 437.470
GONETS M04 19 Apr 06:44:52 06:50:44 19° 281° (W) 06:56:07
Cubesat XI-IV 19 Apr 06:47:31 06:52:39 48° 99° (E) 06:57:47 437.490
JAS-2 19 Apr 06:47:35 06:52:10 19° 304° (WNW) 06:56:13 435.910
STRAND 1 19 Apr 06:50:35 06:55:42 84° 76° (ENE) 07:00:51 437.568
Cosmos 2499 19 Apr 06:52:10 07:00:19 82° 263° (W) 07:07:45 435.465 / 435.565
PRISM 19 Apr 07:01:20 07:05:25 49° 260° (W) 07:09:29 437.425
AUBIESAT-1 19 Apr 07:07:48 07:10:45 16° 266° (W) 07:13:34 437.475
DANDE 19 Apr 07:35:59 07:38:48 12° 275° (W) 07:41:14 436.750
AIST 2 19 Apr 07:45:10 07:46:51 12° 326° (NW) 07:48:24 435.215
BRITE-PL 19 Apr 07:45:38 07:47:43 13° 88° (E) 07:50:09 437.365/2234.400
GOMX 1 19 Apr 08:10:30 08:13:21 16° 89° (E) 08:16:30 467.674
CUTE-I 19 Apr 08:20:43 08:25:11 27° 294° (WNW) 08:29:33 437.470
HO-68 19 Apr 08:23:51 08:29:07 22° 90° (E) 08:34:37 435.675
Cosmos 2491 19 Apr 08:27:38 08:30:05 12° 51° (NE) 08:33:12 435.465 / 435.565
Cubesat XI-IV 19 Apr 08:28:17 08:32:29 24° 296° (WNW) 08:36:35 437.490
STRAND 1 19 Apr 08:33:49 08:35:41 11° 273° (W) 08:37:13 437.568
AAUSAT CUBESAT 2 19 Apr 08:40:51 08:41:29 10° 87° (E) 08:42:23 437.432
Cosmos 2499 19 Apr 08:48:02 08:52:09 14° 283° (WNW) 08:55:38 435.465 / 435.565
ANTELSAT 19 Apr 09:09:18 09:11:08 13° 62° (ENE) 09:13:12 437.575/2403.000
UWE-3 19 Apr 09:19:32 09:20:12 10° 86° (E) 09:21:11 435.000/436.395/437.385
DOVE 4 19 Apr 09:21:12 09:26:00 51° 99° (E) 09:31:03 437.250
BRITE-PL 19 Apr 09:21:56 09:26:44 75° 285° (WNW) 09:31:56 437.365/2234.400
CINEMA 3 19 Apr 09:22:57 09:27:07 28° 94° (E) 09:31:27 145.822/145.860
PCSat 19 Apr 09:24:23 09:29:13 35° 111° (ESE) 09:34:07 145.827
COMPASS 1 19 Apr 09:24:47 09:28:45 39° 97° (E) 09:32:42 437.405
O/OREOS (USA 219) 19 Apr 09:31:07 09:35:38 69° 65° (ENE) 09:40:05 437.305
CANX-2 19 Apr 09:34:28 09:38:49 84° 101° (ESE) 09:43:06 2200.000
QB50P2 19 Apr 09:34:38 09:35:18 10° 62° (ENE) 09:36:12 145.880/145.840
SEEDS 19 Apr 09:38:31 09:42:48 70° 101° (E) 09:47:01 437.485
YUBILEINY 19 Apr 09:40:57 09:42:56 11° 74° (ENE) 09:45:41 435.215
CUTE 1.7 + AOD 2 19 Apr 09:44:46 09:49:06 83° 285° (WNW) 09:53:22 437.475
FUNcube-1 19 Apr 09:46:59 09:49:50 16° 90° (E) 09:52:50 145.935
GOMX 1 19 Apr 09:47:02 09:51:52 64° 286° (WNW) 09:57:02 467.674
POPSAT HIP 1 19 Apr 09:55:35 09:58:16 17° 66° (ENE) 10:01:07 437.405
NANOSAT C BR1 19 Apr 09:55:47 09:58:29 17° 65° (ENE) 10:01:18 145.865
TIGRISAT 19 Apr 10:00:39 10:04:44 38° 71° (ENE) 10:09:00 435.000
UNISAT 6 19 Apr 10:01:29 10:05:38 41° 71° (ENE) 10:09:57 437.425
UKube-1 19 Apr 10:05:07 10:07:15 14° 90° (E) 10:09:36 .
ZACube-1 19 Apr 10:08:32 10:12:28 28° 94° (E) 10:16:28 437.345
HO-68 19 Apr 10:10:24 10:17:34 71° 289° (WNW) 10:24:41 435.675
CUBEBUG 2 19 Apr 10:11:08 10:15:41 45° 98° (E) 10:20:17 437.445
AAUSAT CUBESAT 2 19 Apr 10:13:28 10:17:40 67° 285° (WNW) 10:21:49 437.432
POLYITAN 1 19 Apr 10:20:43 10:24:25 32° 70° (ENE) 10:28:13 437.675
Cosmos 2491 19 Apr 10:20:50 10:29:30 58° 76° (ENE) 10:38:12 435.465 / 435.565
Oscar 11 19 Apr 10:24:57 10:29:19 74° 101° (E) 10:33:40 145.826/435.025
DUCHIFAT 1 19 Apr 10:30:41 10:34:34 39° 71° (ENE) 10:38:30 145.980
DELFI C3 19 Apr 10:35:59 10:40:04 76° 102° (ESE) 10:44:06 145.870
ANTELSAT 19 Apr 10:42:55 10:47:21 74° 258° (WSW) 10:51:56 437.575/2403.000
QB50P1 19 Apr 10:43:08 10:47:14 55° 74° (ENE) 10:51:23 145.935-145.965
DX 1 19 Apr 10:46:10 10:50:17 41° 98° (E) 10:54:25 434.975-435.025
UWE-3 19 Apr 10:52:44 10:57:25 82° 284° (WNW) 11:02:07 435.000/436.395/437.385
BUGSAT 1 19 Apr 10:58:08 11:02:04 55° 74° (ENE) 11:06:02 437.445
DOVE 4 19 Apr 10:59:49 11:03:29 21° 294° (WNW) 11:07:09 437.250
CINEMA 3 19 Apr 10:59:56 11:04:21 34° 290° (WNW) 11:08:48 145.822/145.860
COMPASS 1 19 Apr 11:01:09 11:04:12 19° 293° (WNW) 11:07:08 437.405
HUMSAT D 19 Apr 11:02:28 11:06:42 50° 99° (E) 11:10:56 437.325/437.525
QB50P2 19 Apr 11:06:25 11:10:38 79° 257° (WSW) 11:14:54 145.880/145.840
PCSat 19 Apr 11:07:36 11:12:37 37° 309° (NW) 11:17:38 145.827
O/OREOS (USA 219) 19 Apr 11:12:56 11:14:31 11° 261° (W) 11:15:50 437.305
CANX-2 19 Apr 11:13:38 11:14:09 10° 298° (WNW) 11:14:26 2200.000
SEEDS 19 Apr 11:16:25 11:18:05 12° 297° (WNW) 11:19:33 437.485
FUNcube-1 19 Apr 11:22:02 11:26:30 51° 287° (WNW) 11:30:57 145.935
VELOX 1 19 Apr 11:24:22 11:28:40 48° 99° (E) 11:32:58 145.980
YUBILEINY 19 Apr 11:29:32 11:38:11 65° 93° (E) 11:46:54 435.215
POPSAT HIP 1 19 Apr 11:29:51 11:33:52 43° 261° (W) 11:37:55 437.405
NANOSAT C BR1 19 Apr 11:30:01 11:34:02 43° 261° (W) 11:38:04 145.865
TIGRISAT 19 Apr 11:38:18 11:41:41 21° 268° (W) 11:45:03 435.000
AISAT 19 Apr 11:39:11 11:43:38 74° 102° (ESE) 11:48:06 437.250
UNISAT 6 19 Apr 11:39:20 11:42:39 20° 269° (W) 11:45:56 437.425
UKube-1 19 Apr 11:39:34 11:43:48 54° 287° (WNW) 11:48:02 .
AIST 1 19 Apr 11:40:47 11:43:23 16° 69° (ENE) 11:46:07
ZACube-1 19 Apr 11:44:46 11:48:49 30° 291° (WNW) 11:52:48 437.345
CUBEBUG 2 19 Apr 11:48:32 11:52:06 21° 294° (WNW) 11:55:34 437.445
CUBEBUG 1 19 Apr 11:51:06 11:55:17 45° 99° (E) 11:59:28 437.445
ESTCUBE 1 19 Apr 11:52:55 11:57:19 54° 100° (E) 12:01:43 437.505/2401.250
50 SAT 19 Apr 11:53:01 11:57:05 69° 285° (WNW) 12:01:05 437.505
POLYITAN 1 19 Apr 11:57:03 12:00:25 22° 267° (W) 12:03:43 437.675
HO-68 19 Apr 12:00:16 12:04:12 15° 308° (NW) 12:07:46 435.675
TISAT 1 19 Apr 12:02:45 12:04:31 13° 89° (E) 12:06:30 437.305
Oscar 11 19 Apr 12:03:18 12:04:58 12° 297° (WNW) 12:06:25 145.826/435.025
SPROUT 19 Apr 12:04:49 12:07:39 17° 91° (E) 12:10:38 437.525
DUCHIFAT 1 19 Apr 12:07:38 12:10:35 18° 268° (W) 12:13:26 145.980
DELFI C3 19 Apr 12:14:23 12:14:40 10° 297° (WNW) 12:14:45 145.870
Cosmos 2491 19 Apr 12:18:25 12:25:58 32° 275° (W) 12:33:18 435.465 / 435.565
QB50P1 19 Apr 12:21:30 12:23:33 13° 271° (W) 12:25:22 145.935-145.965
DX 1 19 Apr 12:23:07 12:26:17 20° 294° (WNW) 12:29:22 434.975-435.025
Oscar 19 19 Apr 12:28:19 12:32:35 28° 66° (ENE) 12:36:58 437.125/150
BEESAT 2 19 Apr 12:30:13 12:33:30 22° 44° (NE) 12:36:48 435.950
BUGSAT 1 19 Apr 12:36:25 12:37:59 12° 271° (W) 12:39:19 437.445
BEESAT 3 19 Apr 12:37:55 12:41:33 29° 47° (NE) 12:45:10 437.485
HUMSAT D 19 Apr 12:39:19 12:42:07 16° 295° (WNW) 12:44:45 437.325/437.525
AIST 2 19 Apr 12:47:10 12:49:27 14° 37° (NE) 12:51:51 435.215
ITAMSAT 1 19 Apr 12:48:54 12:51:35 15° 60° (ENE) 12:54:28 435.822/435.867
Cosmos 2504 19 Apr 12:55:10 13:01:23 23° 81° (E) 13:07:58 435.465 / 435.565
VELOX 1 19 Apr 13:01:57 13:04:54 17° 295° (WNW) 13:07:45 145.980
AIST 1 19 Apr 13:17:17 13:21:20 43° 267° (W) 13:25:22
AISAT 19 Apr 13:17:49 13:19:43 12° 298° (WNW) 13:21:24 437.250
SO-50 19 Apr 13:20:30 13:25:02 57° 119° (ESE) 13:29:45 436.795
YUBILEINY 19 Apr 13:28:12 13:35:45 30° 294° (WNW) 13:43:07 435.215
CUBEBUG 1 19 Apr 13:28:22 13:31:21 18° 295° (WNW) 13:34:12 437.445
ESTCUBE 1 19 Apr 13:30:59 13:33:49 16° 296° (WNW) 13:36:29 437.505/2401.250
ITUPSAT 1 19 Apr 13:31:23 13:34:42 19° 91° (E) 13:38:09 437.325
TISAT 1 19 Apr 13:36:34 13:40:44 57° 286° (WNW) 13:44:53 437.305
SPROUT 19 Apr 13:39:54 13:43:59 42° 288° (WNW) 13:48:04 437.525
AO-7 19 Apr 13:43:23 13:48:07 17° 48° (NE) 13:53:12 29.400- 29.500
RS-15 19 Apr 13:49:49 13:56:11 19° 101° (E) 14:03:19 29.354- 29.394
ISS 19 Apr 14:01:31 14:04:13 24° 136° (SE) 14:06:57 145.825
HORYU 2 19 Apr 14:04:26 14:05:41 11° 61° (ENE) 14:07:10 437.375
BEESAT 19 Apr 14:06:00 14:10:33 43° 98° (E) 14:15:05 436.000
Oscar 19 19 Apr 14:07:03 14:11:49 38° 263° (W) 14:16:36 437.125/150
SWISSCUBE 19 Apr 14:07:15 14:11:52 48° 99° (E) 14:16:27 437.505
BEESAT 2 19 Apr 14:07:54 14:11:49 41° 243° (WSW) 14:15:38 435.950
Gurwin Techsat 1B 19 Apr 14:13:27 14:18:43 69° 74° (ENE) 14:24:02 435.225
BEESAT 3 19 Apr 14:15:58 14:19:33 28° 245° (WSW) 14:23:00 437.485
KKS-1 19 Apr 14:21:43 14:22:52 11° 87° (E) 14:24:17 437.445
AIST 2 19 Apr 14:24:26 14:28:42 87° 240° (WSW) 14:32:53 435.215
ITAMSAT 1 19 Apr 14:25:19 14:30:30 79° 256° (WSW) 14:35:44 435.822/435.867
Cosmos 2504 19 Apr 14:45:05 14:53:56 80° 279° (W) 15:02:51 435.465 / 435.565
SO-50 19 Apr 15:02:10 15:05:58 23° 319° (NW) 15:09:47 436.795
ITUPSAT 1 19 Apr 15:08:18 15:12:54 46° 289° (WNW) 15:17:26 437.325
JAS-2 19 Apr 15:11:33 15:18:49 45° 67° (ENE) 15:26:08 435.910
STARS 19 Apr 15:31:04 15:35:14 39° 98° (E) 15:39:25 437.465
AO-7 19 Apr 15:31:25 15:39:37 70° 68° (ENE) 15:47:52 29.400- 29.500
HORYU 2 19 Apr 15:37:16 15:41:44 83° 257° (WSW) 15:46:16 437.375
ISS 19 Apr 15:37:18 15:40:27 44° 332° (NNW) 15:43:36 145.825
BEESAT 19 Apr 15:44:29 15:48:09 22° 295° (WNW) 15:51:42 436.000
SWISSCUBE 19 Apr 15:45:57 15:49:25 20° 295° (WNW) 15:52:44 437.505
GONETS M04 19 Apr 15:54:19 16:00:05 21° 80° (E) 16:06:20
KKS-1 19 Apr 15:55:37 16:00:06 72° 285° (WNW) 16:04:34 437.445
RS-15 19 Apr 15:56:06 16:06:58 81° 120° (ESE) 16:18:07 29.354- 29.394
Gurwin Techsat 1B 19 Apr 15:56:07 15:59:19 15° 272° (W) 16:02:16 435.225
CUTE-I 19 Apr 16:28:00 16:28:45 10° 57° (ENE) 16:29:49 437.470
Cubesat XI-IV 19 Apr 16:34:10 16:36:08 12° 58° (ENE) 16:38:22 437.490
Cosmos 2504 19 Apr 16:43:02 16:49:01 18° 302° (WNW) 16:54:33 435.465 / 435.565
JAS-2 19 Apr 16:56:31 17:03:51 43° 265° (W) 17:11:10 435.910
STARS 19 Apr 17:08:06 17:11:28 21° 294° (WNW) 17:14:45 437.465
MOZHAYETS 4 19 Apr 17:08:32 17:12:58 45° 98° (E) 17:17:22
ISS 19 Apr 17:15:07 17:17:26 17° 352° (N) 17:19:44 145.825
AO-7 19 Apr 17:26:26 17:33:12 26° 268° (W) 17:39:42 29.400- 29.500
CUSAT 1 19 Apr 17:29:19 17:31:22 16° 86° (E) 17:33:51 437.405
Cosmos 2499 19 Apr 17:39:05 17:43:52 17° 78° (ENE) 17:49:11 435.465 / 435.565
GONETS M04 19 Apr 17:47:14 17:55:59 82° 279° (W) 18:04:52
M-CUBED/EXP-1 PRIME 19 Apr 17:59:21 18:01:44 15° 93° (E) 18:04:10 437.505
CUTE-I 19 Apr 18:02:42 18:08:00 71° 74° (ENE) 18:13:20 437.470
Cubesat XI-IV 19 Apr 18:10:10 18:15:30 84° 75° (ENE) 18:20:53 437.490
RS-15 19 Apr 18:10:46 18:20:42 36° 327° (NNW) 18:30:48 29.354- 29.394
PCSat 19 Apr 18:11:14 18:16:09 34° 49° (NE) 18:21:06 145.827
CUBESAT XI-V 19 Apr 18:25:59 18:29:39 24° 93° (E) 18:33:23 437.345
PRISM 19 Apr 18:43:49 18:46:54 21° 93° (E) 18:50:03 437.425
MOZHAYETS 4 19 Apr 18:46:33 18:49:54 20° 294° (WNW) 18:53:06
AUBIESAT-1 19 Apr 18:46:56 18:51:07 42° 102° (ESE) 18:54:59 437.475
ISS 19 Apr 18:52:12 18:54:40 19° 12° (NNE) 18:57:08 145.825
HO-68 19 Apr 18:54:23 18:59:09 20° 56° (NE) 19:04:10 435.675
BRITE-PL 19 Apr 18:58:34 19:00:21 13° 64° (ENE) 19:02:20 437.365/2234.400
STRAND 1 19 Apr 19:01:01 19:05:15 27° 94° (E) 19:09:33 437.568
DANDE 19 Apr 19:05:36 19:08:19 33° 288° (WNW) 19:11:39 436.750
CUSAT 1 19 Apr 19:11:17 19:13:55 22° 294° (WNW) 19:17:01 437.405
GOMX 1 19 Apr 19:20:46 19:22:58 14° 64° (ENE) 19:25:22 467.674
Cosmos 2499 19 Apr 19:27:03 19:35:54 81° 96° (E) 19:44:42 435.465 / 435.565
M-CUBED/EXP-1 PRIME 19 Apr 19:32:40 19:37:04 53° 293° (WNW) 19:41:06 437.505
VERMONT LUNAR 19 Apr 19:44:43 19:47:37 27° 158° (SSE) 19:50:33 437.305
CUTE-I 19 Apr 19:45:39 19:48:44 15° 272° (W) 19:51:33 437.470
GONETS M04 19 Apr 19:48:44 19:54:34 18° 303° (WNW) 19:59:58
Cubesat XI-IV 19 Apr 19:54:04 19:56:24 12° 273° (W) 19:58:24 437.490
PCSat 19 Apr 19:54:38 19:59:38 38° 248° (WSW) 20:04:33 145.827
CUBESAT XI-V 19 Apr 20:03:00 20:07:12 35° 290° (WNW) 20:11:21 437.345
SO-50 19 Apr 20:12:15 20:14:37 13° 32° (NNE) 20:17:08 436.795
COMPASS 1 19 Apr 20:16:50 20:20:30 30° 70° (ENE) 20:24:15 437.405
PRISM 19 Apr 20:18:46 20:22:28 32° 290° (WNW) 20:26:07 437.425
AUBIESAT-1 19 Apr 20:22:19 20:25:36 20° 301° (WNW) 20:28:37 437.475
CINEMA 3 19 Apr 20:26:06 20:29:31 25° 68° (ENE) 20:33:09 145.822/145.860
CANX-2 19 Apr 20:27:47 20:32:02 64° 75° (ENE) 20:36:19 2200.000
DOVE 4 19 Apr 20:28:09 20:32:10 49° 73° (ENE) 20:36:21 437.250
ISS 19 Apr 20:28:16 20:31:31 64° 32° (NNE) 20:34:44 145.825
RS-15 19 Apr 20:29:12 20:37:33 23° 1° (N) 20:46:10 29.354- 29.394
SEEDS 19 Apr 20:31:02 20:35:11 52° 74° (ENE) 20:39:22 437.485
BRITE-PL 19 Apr 20:34:25 20:38:30 56° 260° (W) 20:42:37 437.365/2234.400
CUTE 1.7 + AOD 2 19 Apr 20:37:58 20:42:14 76° 76° (ENE) 20:46:33 437.475
HO-68 19 Apr 20:38:52 20:46:04 88° 253° (WSW) 20:53:20 435.675
STRAND 1 19 Apr 20:39:52 20:44:35 38° 291° (WNW) 20:49:13 437.568
PHONESAT 2.4 19 Apr 20:43:18 20:46:25 28° 158° (SSE) 20:49:34 2401.200-2431.200
FUNcube-1 19 Apr 20:44:28 20:46:38 14° 63° (ENE) 20:49:01 145.935
GOMX 1 19 Apr 20:56:42 21:00:44 50° 261° (W) 21:04:52 467.674
UKube-1 19 Apr 21:01:11 21:03:23 14° 63° (ENE) 21:05:46 .
AAUSAT CUBESAT 2 19 Apr 21:04:34 21:08:47 87° 79° (E) 21:13:03 437.432
ZACube-1 19 Apr 21:05:40 21:09:02 23° 67° (ENE) 21:12:33 437.345
CUBEBUG 2 19 Apr 21:10:19 21:14:16 38° 71° (ENE) 21:18:24 437.445
Oscar 11 19 Apr 21:20:07 21:24:23 61° 75° (ENE) 21:28:43 145.826/435.025
VERMONT LUNAR 19 Apr 21:21:32 21:24:53 59° 174° (S) 21:28:13 437.305
Cosmos 2499 19 Apr 21:23:10 21:30:10 24° 297° (WNW) 21:36:48 435.465 / 435.565
DELFI C3 19 Apr 21:24:01 21:27:58 49° 74° (ENE) 21:31:57 145.870
Cosmos 2491 19 Apr 21:33:45 21:35:39 11° 74° (ENE) 21:38:18 435.465 / 435.565
YUBILEINY 19 Apr 21:39:20 21:46:56 33° 67° (ENE) 21:54:38 435.215
DX 1 19 Apr 21:42:25 21:46:26 39° 70° (ENE) 21:50:30 434.975-435.025
UWE-3 19 Apr 21:50:28 21:54:45 87° 73° (ENE) 21:59:11 435.000/436.395/437.385
SO-50 19 Apr 21:51:18 21:56:13 62° 52° (NE) 22:01:07 436.795
COMPASS 1 19 Apr 21:52:43 21:56:14 24° 267° (W) 21:59:40 437.405
HUMSAT D 19 Apr 21:55:01 21:58:52 37° 71° (ENE) 22:02:50 437.325/437.525
CINEMA 3 19 Apr 22:02:54 22:06:40 30° 266° (W) 22:10:30 145.822/145.860
ISS 19 Apr 22:05:29 22:07:34 16° 227° (SW) 22:09:34 145.825
CANX-2 19 Apr 22:06:52 22:08:30 12° 273° (W) 22:09:51 2200.000
DOVE 4 19 Apr 22:08:07 22:10:24 14° 272° (W) 22:12:31 437.250
SEEDS 19 Apr 22:09:00 22:11:22 14° 271° (W) 22:13:33 437.485
FUNcube-1 19 Apr 22:18:18 22:22:31 59° 260° (W) 22:26:52 145.935
PHONESAT 2.4 19 Apr 22:20:52 22:24:25 60° 174° (S) 22:27:57 2401.200-2431.200
VELOX 1 19 Apr 22:22:37 22:26:50 47° 72° (ENE) 22:31:05 145.980
HO-68 19 Apr 22:30:37 22:34:55 16° 273° (W) 22:38:49 435.675
UKube-1 19 Apr 22:34:51 22:39:06 59° 259° (WSW) 22:43:23 .
ANTELSAT 19 Apr 22:34:51 22:38:37 24° 93° (E) 22:42:26 437.575/2403.000
AISAT 19 Apr 22:37:34 22:41:56 71° 75° (ENE) 22:46:20 437.250
50 SAT 19 Apr 22:38:51 22:42:49 74° 76° (ENE) 22:46:51 437.505
ZACube-1 19 Apr 22:41:24 22:45:15 32° 265° (W) 22:49:12 437.345
RS-15 19 Apr 22:44:03 22:54:22 38° 34° (NE) 23:05:15 29.354- 29.394
CUBEBUG 1 19 Apr 22:47:55 22:51:58 41° 71° (ENE) 22:56:04 437.445
CUBEBUG 2 19 Apr 22:48:03 22:51:11 19° 269° (W) 22:54:18 437.445
QB50P2 19 Apr 22:52:19 22:54:58 16° 91° (E) 22:57:47 145.880/145.840
ESTCUBE 1 19 Apr 22:53:03 22:57:27 54° 73° (ENE) 23:01:53 437.505/2401.250
TISAT 1 19 Apr 22:56:50 22:58:03 11° 63° (ENE) 22:59:29 437.305
VERMONT LUNAR 19 Apr 22:58:59 23:02:17 50° 191° (S) 23:05:33 437.305
Oscar 11 19 Apr 22:59:06 23:01:04 12° 272° (W) 23:02:49 145.826/435.025
SPROUT 19 Apr 23:00:23 23:02:52 16° 65° (ENE) 23:05:31 437.525
DELFI C3 19 Apr 23:01:17 23:03:29 14° 271° (W) 23:05:28 145.870
NANOSAT C BR1 19 Apr 23:14:29 23:18:07 27° 95° (E) 23:21:50 145.865
POPSAT HIP 1 19 Apr 23:14:34 23:18:13 27° 95° (E) 23:21:57 437.405
DX 1 19 Apr 23:19:42 23:22:53 19° 268° (W) 23:25:57 434.975-435.025
Cosmos 2491 19 Apr 23:22:25 23:30:56 65° 93° (E) 23:39:36 435.465 / 435.565
TIGRISAT 19 Apr 23:27:51 23:32:36 79° 102° (ESE) 23:37:19 435.000
UNISAT 6 19 Apr 23:29:02 23:33:48 84° 103° (ESE) 23:38:31 437.425
HUMSAT D 19 Apr 23:31:46 23:34:50 19° 269° (W) 23:37:48 437.325/437.525
SO-50 19 Apr 23:32:59 23:36:22 18° 249° (WSW) 23:39:33 436.795
YUBILEINY 19 Apr 23:35:45 23:44:19 58° 268° (W) 23:52:43 435.215
POLYITAN 1 19 Apr 23:40:46 23:45:00 55° 100° (E) 23:49:14 437.675
O/OREOS (USA 219) 19 Apr 23:43:40 23:48:14 73° 111° (ESE) 23:52:49 437.305
DUCHIFAT 1 19 Apr 23:50:08 23:54:24 68° 101° (ESE) 23:58:39 145.980
PHONESAT 2.4 19 Apr 23:59:02 00:02:32 52° 191° (S) 00:06:00 2401.200-2431.200
